Location: *
(44.3925°N, 5.4708°E)
Time: 03:17:44
(UTC+00:00)

DMSP B5D2-2 - Pass Details

Date: 18 September 2019
Orbit: 791 x 805 km, 98.4° (Epoch: 14 October)

Event Time Altitude Azimuth Distance (km) Brightness Sun altitude
Rises 19:59:08 0° 16° (NNE) 3,331 7.5 -23.9°
Reaches altitude 10° 20:01:30 10° 20° (NNE) 2,396 6.7 -24.3°
Enters shadow 20:06:02 56° 63° (ENE) 954 4.2 -25.0°
